Regional Weather Roundup
Issued by NWS Mt. Holly, NJ

Home | Current Version | Previous Version | Text Only | Print | Product List | Glossary On
Versions: 1 2 3 4 5 6 7 8 9 10 11 12 13 14 15 16 17 18 19 20 21 22 23 24 25 26 27
000
ASUS41 KPHI 301312
RWRPHI

REGIONAL WEATHER ROUNDUP
NATIONAL WEATHER SERVICE MOUNT HOLLY NJ
900 AM EDT MON MAY 30 2016

NOTE:  "FAIR" INDICATES FEW OR NO CLOUDS BELOW 12,000 FEET WITH NO
SIGNIFICANT WEATHER AND/OR OBSTRUCTIONS TO VISIBILITY.

 * = STATION DOES NOT REPORT PRECIPITATION (E.G. RAIN, SNOW, ETC.)
        OR FOG.

NJZ015>026-301400-
SOUTHERN NEW JERSEY

CITY           SKY/WX    TMP DP  RH WIND       PRES   REMARKS
POMONA         HVY RAIN  72  71  97 S3        30.02S VSB 1/4
WILDWOOD*      CLOUDY   N/A N/A N/A SW7       30.02F
MILLVILLE      CLOUDY    74  71  91 W7        30.02R
WRIGHTSTOWN    LGT RAIN  72  70  94 NW5       30.00S
MOUNT HOLLY    CLOUDY    70  69  97 N5        30.02S
TRENTON        CLOUDY    70  66  87 SW3       30.02R

$$
NJZ001>014-301400-
NORTHERN NEW JERSEY

CITY           SKY/WX    TMP DP  RH WIND       PRES   REMARKS
SUSSEX         CLOUDY    69  64  84 CALM      30.02R
ANDOVER*         N/A     67  64  90 CALM      30.03R
MORRISTOWN     CLOUDY    70  68  94 CALM      30.02R
NEWARK         CLOUDY    71  68  90 W3        30.01R
TETERBORO      CLOUDY    70  63  78 N3        30.00R FOG
CALDWELL       CLOUDY    70  65  84 CALM      30.02R
SOMERVILLE     CLOUDY    71  66  84 W3        30.00R
ALLAIRE*       CLOUDY    71  70  96 SW5       30.03S
TOMS RIVER*    CLOUDY   N/A N/A N/A W6        30.02S

$$
PAZ043-044-047-054-055-060>062-066>071-301400-
EASTERN PENNSYLVANIA

CITY           SKY/WX    TMP DP  RH WIND       PRES   REMARKS
PHILADELPHIA   CLOUDY    71  67  87 NW8       30.03R
NORTH PHILA    CLOUDY    72  70  93 CALM      30.04R
BLUE BELL*     CLOUDY    68  66  94 CALM      30.03R
DOYLESTOWN     CLOUDY    70  68  93 W3        30.03R
QUAKERTOWN*    CLOUDY    68  66  94 CALM      30.05R
PERKASIE*      CLOUDY    68  68 100 W3        30.05R
POTTSTOWN      CLOUDY    70  67  90 VRB3      30.05R
LANCASTER      CLOUDY    69  64  84 CALM      30.04S
COATESVILLE    MOSUNNY   70  64  83 NW8       30.06S
READING        CLOUDY    70  65  84 SW5       30.03S
ALLENTOWN      CLOUDY    70  64  83 CALM      30.03R
MOUNT POCONO   NOT AVBL
HAZLETON       CLOUDY    68  63  83 W3        30.09R
LEHIGHTON      CLOUDY    68  64  88 CALM      30.04S
WILKES BARRE   CLOUDY    67  62  84 W5        30.03F

$$
DEZALL-MDZ008-012-015-019-020-301400-
DELAWARE AND EASTERN MARYLAND

CITY           SKY/WX    TMP DP  RH WIND       PRES   REMARKS
WILMINGTON     CLOUDY    71  67  87 NW3       30.03R
DOVER          CLOUDY    73  73 100 W5        30.01S
GEORGETOWN     LGT RAIN  73  72  96 S3        30.03S
EASTON         CLOUDY    73  73 100 CALM      30.06R
PATUXENT       CLOUDY    71  69  93 CALM      30.02R
OCEAN CITY     LGT RAIN  70  69  97 SW5       30.03S FOG
WALLOPS ISLAND LGT RAIN  72  69  90 S7        30.04R
CAMBRIDGE      CLOUDY    72  70  94 CALM      30.02S
SALISBURY      CLOUDY    73  72  96 S6        30.03R

$$
PAZ001-021-NYZ056-072-MDZ011-DCZ001-301400-
OTHER NEARBY LOCATIONS

CITY           SKY/WX    TMP DP  RH WIND       PRES   REMARKS
HARRISBURG     CLOUDY    69  62  78 NW3       30.03S
STATE COLLEGE  SUNNY     70  61  73 S6        30.03S
WILLIAMSPORT   MOSUNNY   72  62  71 E5        30.01S
BINGHAMTON     MOSUNNY   67  59  75 SW9       30.02S
NEW YORK CITY  CLOUDY    69  67  93 VRB3      30.04R FOG
BALTIMORE      CLOUDY    71  65  81 W3        30.03S
WASHINGTON DC  CLOUDY    73  66  78 N6        30.04S

$$




USA.gov is the U.S. government's official web portal to all federal, state and local government web resources and services.